Overview Statistics Trail Chart Weather Telemetry Raw packets
 

This is the latest recevied weather packets stored in our database for station/object KP3M-5. If no packets are shown the sender has not sent any weather packets the latest 10 day(s).

<< 1 2 3 4 5 6 >>
Time Temp. Humidity Pressure Rain* Wind** Luminosity Snow
1788213904 24.44° C 84% 1024 hPa - - - -
1788210320 26.11° C 81% 1024 hPa - - - -
1788206705 26.67° C 79% 1024 hPa - - - -
1788203113 26.67° C 81% 1024 hPa - - - -
1788199504 26.67° C 79% 1024 hPa - - - -
1788195904 27.22° C 78% 1024 hPa - - - -
1788192304 26.67° C 78% 1024 hPa - - - -
1788188709 26.67° C 80% 1024 hPa - - - -
1788185104 26.11° C 83% 1024 hPa - - - -
1788181503 25.56° C 87% 1024 hPa - - - -
1788177903 23.89° C 91% 1024 hPa - - - -
1788174304 23.33° C 90% 1024 hPa - - - -
1788170704 23.33° C 90% 1024 hPa - - - -
1788167107 23.33° C 89% 1024 hPa - - - -
1788163504 23.89° C 90% 1024 hPa - - - -
1788127505 23.89° C 90% 1024 hPa - - - -
1788127204 23.89° C 90% 1024 hPa - - - -
1788123904 23.89° C 89% 1024 hPa - - - -
1788120305 24.44° C 84% 1024 hPa - - - -
1788116705 23.89° C 97% 1024 hPa - - - -
1788113104 25.56° C 90% 1024 hPa - - - -
1788109509 25.56° C 88% 1024 hPa - - - -
1788105904 26.11° C 88% 1024 hPa - - - -
1788102303 27.22° C 83% 1024 hPa - - - -
1788098705 27.22° C 83% 1024 hPa - - - -

* Rain since midnight (hover to see other rain measurements)
** Current wind speed in m/s (hover to see current wind gust speed)